When you browse on this site, cookies collect data to enhance your experience and personalize the content and advertising you see.
Visit our Privacy Policy to learn more. By continuing to use the site, you agree to this use of cookies and data.
  • In Deutschland
  • Länderverzeichnis
  • Für 7 Tage
  • Wassertemperatur
  • Satellitenkarten
  • Wetterkarte
  • Widgets
  • user-avatar
    Anmelden

    Stündliche Wetter Qala i Naw

    Heute, 19 Juli, Freitag

    Zeit Temperatur Niederschläge Wind Luftdruck Luftfeuchtigkeit
    00:00 +26°C° 0 mm 1 m/S 676 mmHg 17%
    01:00 +25°C° 0 mm 1 m/S 676 mmHg 18%
    02:00 +24°C° 0 mm 1 m/S 676 mmHg 19%
    03:00 +23°C° 0 mm 1 m/S 676 mmHg 20%
    04:00 +21°C° 0 mm 0 m/S 676 mmHg 21%
    05:00 +26°C° 0 mm 1 m/S 677 mmHg 18%
    06:00 +29°C° 0 mm 1 m/S 678 mmHg 15%
    07:00 +32°C° 0 mm 1 m/S 678 mmHg 11%
    08:00 +35°C° 0 mm 3 m/S 679 mmHg 10%
    09:00 +39°C° 0 mm 5 m/S 679 mmHg 9%
    10:00 +41°C° 0 mm 6 m/S 679 mmHg 8%
    11:00 +43°C° 0 mm 7 m/S 679 mmHg 7%
    12:00 +44°C° 0 mm 8 m/S 679 mmHg 7%
    13:00 +45°C° 0 mm 10 m/S 678 mmHg 6%
    14:00 +45°C° 0 mm 10 m/S 678 mmHg 6%
    15:00 +45°C° 0 mm 10 m/S 678 mmHg 6%
    16:00 +44°C° 0 mm 10 m/S 677 mmHg 6%
    17:00 +41°C° 0 mm 8 m/S 677 mmHg 7%
    18:00 +39°C° 0 mm 7 m/S 678 mmHg 8%
    19:00 +36°C° 0 mm 5 m/S 678 mmHg 8%
    20:00 +34°C° 0 mm 4 m/S 677 mmHg 10%
    21:00 +30°C° 0 mm 3 m/S 677 mmHg 11%
    22:00 +28°C° 0 mm 2 m/S 677 mmHg 13%
    23:00 +27°C° 0 mm 1 m/S 677 mmHg 14%

    Morgen, 20 Juli, Samstag

    Zeit Temperatur Niederschläge Wind Luftdruck Luftfeuchtigkeit
    00:00 +26°C° 0 mm 1 m/S 677 mmHg 14%
    01:00 +25°C° 0 mm 1 m/S 677 mmHg 15%
    02:00 +24°C° 0 mm 1 m/S 677 mmHg 16%
    03:00 +24°C° 0 mm 1 m/S 677 mmHg 17%
    04:00 +23°C° 0 mm 1 m/S 677 mmHg 19%
    05:00 +26°C° 0 mm 1 m/S 678 mmHg 16%
    06:00 +29°C° 0 mm 1 m/S 678 mmHg 13%
    07:00 +32°C° 0 mm 1 m/S 679 mmHg 10%
    08:00 +35°C° 0 mm 2 m/S 680 mmHg 9%
    09:00 +38°C° 0 mm 4 m/S 680 mmHg 9%
    10:00 +41°C° 0 mm 6 m/S 680 mmHg 8%
    11:00 +43°C° 0 mm 7 m/S 680 mmHg 7%
    12:00 +44°C° 0 mm 9 m/S 680 mmHg 7%
    13:00 +45°C° 0 mm 10 m/S 680 mmHg 6%
    14:00 +45°C° 0 mm 10 m/S 680 mmHg 6%
    15:00 +45°C° 0 mm 10 m/S 679 mmHg 6%
    16:00 +45°C° 0 mm 9 m/S 679 mmHg 6%
    17:00 +44°C° 0 mm 9 m/S 679 mmHg 6%
    18:00 +41°C° 0 mm 8 m/S 679 mmHg 7%
    19:00 +39°C° 0 mm 7 m/S 679 mmHg 8%
    20:00 +36°C° 0 mm 6 m/S 679 mmHg 10%
    21:00 +34°C° 0 mm 5 m/S 680 mmHg 12%
    22:00 +30°C° 0 mm 3 m/S 680 mmHg 14%
    23:00 +29°C° 0 mm 3 m/S 680 mmHg 16%

    übermorgen, 21 Juli, Sonntag

    Zeit Temperatur Niederschläge Wind Luftdruck Luftfeuchtigkeit
    00:00 +28°C° 0 mm 2 m/S 679 mmHg 19%
    01:00 +26°C° 0 mm 1 m/S 679 mmHg 21%
    02:00 +26°C° 0 mm 1 m/S 679 mmHg 22%
    03:00 +25°C° 0 mm 1 m/S 679 mmHg 24%
    04:00 +24°C° 0 mm 1 m/S 679 mmHg 26%
    05:00 +27°C° 0 mm 1 m/S 680 mmHg 22%
    06:00 +30°C° 0 mm 2 m/S 680 mmHg 19%
    07:00 +32°C° 0 mm 2 m/S 681 mmHg 15%
    08:00 +35°C° 0 mm 4 m/S 681 mmHg 14%
    09:00 +37°C° 0 mm 5 m/S 681 mmHg 13%
    10:00 +39°C° 0 mm 6 m/S 682 mmHg 12%
    11:00 +41°C° 0 mm 8 m/S 682 mmHg 11%
    12:00 +44°C° 0 mm 9 m/S 682 mmHg 10%
    13:00 +46°C° 0 mm 11 m/S 682 mmHg 9%
    14:00 +46°C° 0 mm 11 m/S 681 mmHg 9%
    15:00 +46°C° 0 mm 12 m/S 681 mmHg 9%
    16:00 +46°C° 0 mm 13 m/S 680 mmHg 9%
    17:00 +43°C° 0 mm 11 m/S 680 mmHg 10%
    18:00 +40°C° 0 mm 9 m/S 680 mmHg 11%
    19:00 +39°C° 0 mm 7 m/S 680 mmHg 13%
    20:00 +36°C° 0 mm 5 m/S 680 mmHg 14%
    21:00 +34°C° 0 mm 4 m/S 680 mmHg 16%
    22:00 +31°C° 0 mm 3 m/S 680 mmHg 18%
    23:00 +30°C° 0 mm 3 m/S 679 mmHg 20%

    22 Juli, Montag

    Zeit Temperatur Niederschläge Wind Luftdruck Luftfeuchtigkeit
    00:00 +29°C° 0 mm 2 m/S 679 mmHg 22%
    01:00 +28°C° 0 mm 2 m/S 679 mmHg 25%
    02:00 +27°C° 0 mm 2 m/S 679 mmHg 28%
    03:00 +26°C° 0 mm 2 m/S 679 mmHg 31%
    04:00 +25°C° 0 mm 1 m/S 679 mmHg 35%
    05:00 +27°C° 0 mm 2 m/S 679 mmHg 31%
    06:00 +29°C° 0 mm 2 m/S 680 mmHg 27%
    07:00 +30°C° 0 mm 2 m/S 680 mmHg 24%
    08:00 +34°C° 0 mm 4 m/S 681 mmHg 22%
    09:00 +36°C° 0 mm 6 m/S 681 mmHg 21%
    10:00 +39°C° 0 mm 7 m/S 681 mmHg 20%
    11:00 +40°C° 0 mm 8 m/S 681 mmHg 18%
    12:00 +42°C° 0 mm 9 m/S 681 mmHg 17%
    13:00 +43°C° 0 mm 9 m/S 680 mmHg 16%
    14:00 +43°C° 0 mm 10 m/S 680 mmHg 15%
    15:00 +42°C° 0 mm 10 m/S 679 mmHg 14%
    16:00 +42°C° 0 mm 10 m/S 679 mmHg 13%
    17:00 +40°C° 0 mm 9 m/S 679 mmHg 14%
    18:00 +38°C° 0 mm 8 m/S 679 mmHg 15%
    19:00 +35°C° 0 mm 7 m/S 679 mmHg 16%
    20:00 +33°C° 0 mm 5 m/S 679 mmHg 18%
    21:00 +30°C° 0 mm 4 m/S 678 mmHg 19%
    22:00 +28°C° 0 mm 3 m/S 678 mmHg 20%
    23:00 +26°C° 0 mm 2 m/S 678 mmHg 21%

    23 Juli, Dienstag

    Zeit Temperatur Niederschläge Wind Luftdruck Luftfeuchtigkeit
    00:00 +25°C° 0 mm 2 m/S 677 mmHg 22%
    01:00 +23°C° 0 mm 1 m/S 677 mmHg 23%
    02:00 +23°C° 0 mm 1 m/S 677 mmHg 24%
    03:00 +22°C° 0 mm 1 m/S 676 mmHg 25%
    04:00 +19°C° 0 mm 0 m/S 676 mmHg 26%
    05:00 +22°C° 0 mm 0 m/S 677 mmHg 23%
    06:00 +26°C° 0 mm 1 m/S 678 mmHg 20%
    07:00 +29°C° 0 mm 1 m/S 678 mmHg 16%
    08:00 +31°C° 0 mm 2 m/S 678 mmHg 15%
    09:00 +34°C° 0 mm 4 m/S 679 mmHg 14%
    10:00 +36°C° 0 mm 5 m/S 679 mmHg 13%
    11:00 +39°C° 0 mm 6 m/S 679 mmHg 12%
    12:00 +40°C° 0 mm 7 m/S 678 mmHg 11%
    13:00 +43°C° 0 mm 9 m/S 678 mmHg 10%
    14:00 +43°C° 0 mm 9 m/S 678 mmHg 9%
    15:00 +43°C° 0 mm 10 m/S 678 mmHg 8%
    16:00 +43°C° 0 mm 11 m/S 677 mmHg 7%
    17:00 +39°C° 0 mm 9 m/S 677 mmHg 8%
    18:00 +37°C° 0 mm 8 m/S 677 mmHg 9%
    19:00 +34°C° 0 mm 6 m/S 677 mmHg 10%
    20:00 +32°C° 0 mm 5 m/S 677 mmHg 13%
    21:00 +29°C° 0 mm 4 m/S 677 mmHg 16%
    22:00 +27°C° 0 mm 3 m/S 677 mmHg 19%
    23:00 +26°C° 0 mm 2 m/S 677 mmHg 21%

    24 Juli, Mittwoch

    Zeit Temperatur Niederschläge Wind Luftdruck Luftfeuchtigkeit
    00:00 +25°C° 0 mm 2 m/S 676 mmHg 23%
    01:00 +23°C° 0 mm 1 m/S 676 mmHg 25%
    02:00 +23°C° 0 mm 1 m/S 676 mmHg 26%
    03:00 +22°C° 0 mm 1 m/S 676 mmHg 27%
    04:00 +21°C° 0 mm 1 m/S 676 mmHg 27%
    05:00 +24°C° 0 mm 1 m/S 677 mmHg 24%
    06:00 +26°C° 0 mm 1 m/S 677 mmHg 21%
    07:00 +28°C° 0 mm 1 m/S 678 mmHg 18%
    08:00 +30°C° 0 mm 2 m/S 678 mmHg 16%
    09:00 +33°C° 0 mm 3 m/S 678 mmHg 15%
    10:00 +35°C° 0 mm 4 m/S 678 mmHg 13%
    11:00 +36°C° 0 mm 6 m/S 678 mmHg 13%
    12:00 +39°C° 0 mm 7 m/S 678 mmHg 12%
    13:00 +42°C° 0 mm 9 m/S 678 mmHg 11%
    14:00 +42°C° 0 mm 10 m/S 678 mmHg 11%
    15:00 +42°C° 0 mm 10 m/S 678 mmHg 11%
    16:00 +41°C° 0 mm 11 m/S 677 mmHg 11%
    17:00 +39°C° 0 mm 9 m/S 677 mmHg 13%
    18:00 +37°C° 0 mm 8 m/S 677 mmHg 14%
    19:00 +34°C° 0 mm 7 m/S 677 mmHg 15%
    20:00 +32°C° 0 mm 5 m/S 677 mmHg 17%
    21:00 +29°C° 0 mm 4 m/S 677 mmHg 18%
    22:00 +27°C° 0 mm 3 m/S 677 mmHg 20%
    23:00 +25°C° 0 mm 2 m/S 677 mmHg 22%
    Mehr zeigen